STARLINK-1787 (47125 NORAD) Tracking and Keplerian Element Data

This shows tracking and keplerian element data for the satellite.

Feedback or suggestion? Click here.




ElementValue
Catalog47125
NameSTARLINK-1787
Epoch Orbit177
Epoch Day62.91667824
Epoch Year2021
RAAN229.6947
Inclination53.0526
Eccentricity0.0006386
Argument of Perigee324.5404
Mean Anonmoly269.4492
Mean Motion15.57231017
Decay Rate0.00082129
L11 47125U 20088D 21062.91667824 .00082129 00000-0 11023-2 0 9992
L22 47125 53.0526 229.6947 0006386 324.5404 269.4492 15.57231017 1779

Live tracking and technical data element details for STARLINK-1787 (NORAD 47125). STARLINK-1787 can be tracked NOW for your location showing map with azimuth and elevation plus other details from your city location.

Track the satellite on the map from your city or location and see movement details for azimuth, elevation, latitude, longitude, range, height, and movement on the map or in text.







IsCatalogInMostPopularTable: catalog: 47125, numindb: 26
Update: records affected: 1



GetName: 47125 STARLINK-1787

Hit Count: updated at: Fri, 05 Mar 2021 07:30:27 GMT